STARLINK-1664, 46553

Orbit data source: Space-Track

STARLINK-1664, 46553 is a payload satellite owned by SpaceX/Seattle (US) in LEO that was launched on Tue, 06 Oct 2020 UTC via an FALCON 9 launch vehicle from the Air Force Eastern Test Range (AFETR). Payloads include a variety of satellites, spacecraft, and rockets equipped with specific instruments for various scientific and technological missions. These include communications satellites like Starlink; space stations such as the ISS; scientific satellites like the Hubble; Earth observation satellites from companies like Planet Labs, Umbra, and HawkEye 360; GPS; miniature CubeSats for education and research; and military/defense satellites.

Loading next visibility...
STARLINK-1664 details
Identifier
46553, 2020-070X
Orbit
LEO
Last TLE update22 hours ago
Origin
Flag of USSpaceX/Seattle (US)
ManufacturerSpaceX/Seattle
MissionOperational Commercial Communications
Bus & MotorSTARLINK, Unknown motor
Mass260 kg wet, ~248 kg dry
Launch date (UTC)
2020-10-06 (4 years ago)
Launch vehicle
FALCON 9
Launch site
Air Force Eastern Test Range (AFETR)
Object type
Payload
Rocket body
Debris
Shape & HBRBox + 1 Pan, 8.86 m
Radar Cross Section13.562 m², Large (>1 m²)

Expand to show TLE details & history

TLE from 22 hours ago
0 STARLINK-1664
1 46553U 20070X   24347.48075678  .00016121  00000-0  10983-2 0  9991
2 46553  53.0545  16.6737 0001549  94.0164 266.1002 15.06413068231760
Epoch: 2024-12-12T11:32Z
Definitive object data (Epoch: 2024-12-12T11:32:17.385Z)
Latitude-0.00004°
Longitude121.94075°
Altitude548.124 km
Speed7.589 km/s
True Right ascension01h 06m 41s
True Declination0° 00' 00"
Sunlit
Object was in full shadow at TLE epoch
Visualization TLE readout
Latitude-7.19419°
Longitude-56.67116°
Altitude549.215 km
Speed7.588 km/s
Apparent Right ascension15h 41m 20s
Apparent Declination-31° 29' 37"
Sunlit
Object is in daylight
Visualization observer readout
Local Sidereal Time07:34:04
Azimuth98.803° ESE
Elevation-42.845°
Doppler factor1
Orbital elements
Apogee altitude548.515 km
Perigee altitude546.369 km
Semi-major axis6,925.579 km
Eccentricity0.0001549
Inclination53.0545°
RAAN16.6737°
Arg. of periapsis94.0164°
True anomaly266.08249°
Mean anomaly266.1002°
Eccentric anomaly266.09135°
Mean motion3.76582 °/min
BSTAR0.0010983
Orbital period95.6 mins
Loading maneuver chart data...
Loading historical data...
Loading historical data...
Loading historical data...
Loading historical data...
Loading historical data...
Loading historical data...
Loading historical data...

STARLINK-1664 Visibility forecast

Observer location: undefined°, undefined

Span
Click to sort rows by Start time (UTC) header in descending order
Start Az.
Max El. time (UTC)
Max El. Az.
Max El.
End time (UTC)
End Az.
5 mins2024-12-13 10:17:21.708Z338.492° N2024-12-13 10:19:21.708Z15.116° NNE22.561°2024-12-13 10:22:21.708Z73.889° E
6 mins2024-12-13 11:57:21.708Z298.36° NW2024-12-13 11:59:21.708Z243.12° WSW41.883°2024-12-13 12:03:21.708Z142.118° SSE
5 mins2024-12-14 03:30:21.708Z169.777° S2024-12-14 03:32:21.708Z131.257° SE21.662°2024-12-14 03:35:21.708Z79.064° E
6 mins2024-12-14 05:09:21.708Z258.667° W2024-12-14 05:11:21.708Z305.853° NW36.421°2024-12-14 05:15:21.708Z40.298° NE
|